Location: Albany
(35.0000°S, 118.0000°E)
Time: 05:49:43
(UTC-04:00)

Cosmos 1933 - Visible Passes

Search period start: 01 August 2014 00:00
Search period end: 11 August 2014 00:00
Orbit: 557 x 572 km, 82.5° (Epoch: 31 July)

Date Brightness Start Highest point End Pass type
(mag) Time Alt. Az. Time Alt. Az. Time Alt. Az.
01 Aug 3.8 05:45:59 10° NNE 05:49:50 41° E 05:53:43 10° SSE visible
01 Aug 6.6 07:25:18 10° W 07:26:46 12° WSW 07:28:14 10° SW visible
01 Aug 3.3 17:27:09 10° S 17:31:19 85° W 17:35:26 10° N visible
02 Aug 3.5 05:46:09 10° N 05:50:07 53° E 05:54:09 10° SSE visible
02 Aug 3.3 17:28:39 18° SSW 17:31:37 66° W 17:35:42 10° N visible
03 Aug 3.4 05:46:22 10° N 05:50:25 69° E 05:54:31 10° SSE visible
03 Aug 3.5 17:30:23 33° SW 17:31:55 51° W 17:35:55 10° N visible
04 Aug 6.6 15:56:03 12° E 15:56:03 12° E 15:57:00 10° E visible
04 Aug 3.7 17:32:10 40° W 17:32:12 40° W 17:36:04 10° NNW visible
05 Aug 6.6 15:57:51 11° ENE 15:57:51 11° ENE 15:58:09 10° ENE visible
05 Aug 4.6 17:33:58 24° NW 17:33:58 24° NW 17:36:08 10° NNW visible
06 Aug 5.6 17:35:45 12° NW 17:35:45 12° NW 17:36:08 10° NW visible
